Location: Betz
(49.1556°N, 2.9558°E)
Time: 03:52:03
(UTC+00:00)

Cosmos 1378 - Pass Details

Date: 18 September 2019
Orbit: 493 x 503 km, 82.5° (Epoch: 20 October)

Event Time Altitude Azimuth Distance (km) Brightness Sun altitude
Rises 18:18:24 0° 350° (N) 2,616 7.0 -4.5°
Reaches altitude 10° 18:20:32 10° 352° (N) 1,726 6.1 -4.9°
Maximum altitude 18:24:20 81° 80° (E) 516 3.1 -5.5°
Drops below altitude 10° 18:28:04 10° 168° (SSE) 1,707 5.6 -6.1°
Sets 18:30:10 0° 169° (S) 2,585 6.5 -6.4°
